Location: Brachstadt
(48.6975°N, 10.6755°E)
Time: 05:56:14
(UTC+00:00)

Cosmos 1844 - Pass Details

Date: 18 September 2020
Orbit: 824 x 866 km, 70.9° (Epoch: 27 October)

Event Time Altitude Azimuth Distance (km) Brightness Sun altitude
Rises 19:26:32 0° 193° (SSW) 3,412 6.7 -20.4°
Reaches altitude 10° 19:29:01 10° 190° (S) 2,475 5.9 -20.8°
Maximum altitude 19:34:34 59° 112° (ESE) 976 3.6 -21.6°
Drops below altitude 10° 19:40:07 10° 35° (NE) 2,463 6.1 -22.3°
Sets 19:42:34 0° 31° (NNE) 3,395 6.9 -22.7°
